Location: High Meadows Obseravatory
(40.7417°N, 111.5713°W)
Time: 18:50:36
(UTC-06:00)

Envisat - Pass Details

Date: 10 August 2022
Orbit: 763 x 765 km, 98.2° (Epoch: 30 September)

Event Time Altitude Azimuth Distance (km) Brightness Sun altitude
Rises 04:55:31 0° 26° (NNE) 3,236 7.5 -16.6°
Reaches altitude 10° 04:58:17 10° 41° (NE) 2,304 6.8 -16.2°
Maximum altitude 05:02:20 24° 94° (E) 1,553 5.2 -15.6°
Drops below altitude 10° 05:06:21 10° 147° (SSE) 2,290 5.4 -15.0°
Sets 05:09:04 0° 161° (SSE) 3,211 6.0 -14.6°
